Regional Weather Roundup
Issued by NWS

Home | Current Version | Previous Version | Graphics & Text | Print | Product List | Glossary On
Versions: 1 2 3 4 5 6 7 8 9 10 11 12 13 14 15 16 17 18 19 20 21 22 23 24 25 26 27 28 29 30 31 32 33 34 35 36 37 38 39 40 41 42 43 44 45 46 47 48 49 50
000
ASUS43 KOAX 211910
RWRNE

WEATHER ROUNDUP FOR NEBRASKA
NATIONAL WEATHER SERVICE OMAHA NE
100 PM CST SUN JAN 21 2018

NOTES: SATELLITE DATA IS BEING USED TO AUGMENT CLOUD COVER ABOVE
       12000 FEET.
       "FAIR" INDICATES FEW OR NO CLOUDS BELOW 12,000 FEET WITH NO
       SIGNIFICANT WEATHER AND/OR OBSTRUCTIONS TO VISIBILITY.


NEZ001>004-019>022-054>056-212000-
NEBRASKA PANHANDLE

CITY           SKY/WX    TMP DP  RH WIND       PRES   REMARKS
SCOTTSBLUFF    LGT SNOW  29  26  89 N23       29.90F FOG     WCI  15
ALLIANCE       FOG       28  27  96 N21       29.87F VSB 1   WCI  15
CHADRON        LGT SNOW  30  27  88 N14       29.97F FOG     WCI  19
GORDON         LGT SNOW  30  28  90 N16       29.91F VSB 3/4 WCI  19
KIMBALL        LGT SNOW  27  25  93 N15G22    29.84F VSB 3/4 WCI  15
SIDNEY         SNOW      28  25  88 N25G32    29.82F VSB 1/2 WCI  13
$$

NEZ057>060-069>072-079>082-212000-
SOUTHWEST NEBRASKA

CITY           SKY/WX    TMP DP  RH WIND       PRES   REMARKS
NORTH PLATTE   CLOUDY    34  28  79 N28G38    29.74F WCI  21
IMPERIAL       LGT SNOW  31  30  96 N25G33    29.74F FOG     WCI  17
LEXINGTON      CLOUDY    34  31  90 NE21G26   29.72R WCI  22
MCCOOK         CLOUDY    33  32  96 NE20G30   29.68F WCI  21
OGALLALA       LGT SNOW  33  31  92 N22G28    29.78F WCI  21
$$

NEZ005>010-023>029-035>040-094-212000-
NORTH CENTRAL NEBRASKA

CITY           SKY/WX    TMP DP  RH WIND       PRES   REMARKS
VALENTINE      LGT SNOW  33  30  88 N20       29.92F FOG     WCI  21
AINSWORTH      CLOUDY    33  32  96 N24G31    29.87F FOG     WCI  20
BROKEN BOW     CLOUDY    35  29  78 N18G33    29.75F WCI  24
O`NEILL        CLOUDY    37  33  86 N24G32    29.85F WCI  25
ORD            CLOUDY    36  30  79 N21G30    29.78F WCI  25
THEDFORD       MIX PCPN  33  32  96 N18G30    29.83F WCI  22
$$

NEZ041-046>049-061>064-073>077-083>087-212000-
SOUTH CENTRAL NEBRASKA

CITY           SKY/WX    TMP DP  RH WIND       PRES   REMARKS
GRAND ISLAND   LGT RAIN  33  33 100 N17       29.75S FOG     WCI  22
AURORA         CLOUDY    35  35  99 NE18      29.73R FOG     WCI  24
HASTINGS       CLOUDY    35  34  96 NE20G28   29.71F FOG     WCI  24
HEBRON         FOG       41  40  97 NE12      29.69F VSB 3/4
HOLDREGE       CLOUDY    33  33 100 NE21      29.69F FOG     WCI  21
KEARNEY        LGT RAIN  32  32 100 NE24      29.71S FOG     WCI  19
YORK           PTSUNNY   37  37 100 NE20      29.72S FOG     WCI  27
$$

NEZ011>018-030>034-042>045-212000-
NORTHEAST NEBRASKA

CITY           SKY/WX    TMP DP  RH WIND       PRES   REMARKS
NORFOLK        CLOUDY    48  31  51 N16       29.77F
ALBION         CLOUDY    37  31  79 N15G24    29.78F WCI  28
BLAIR          FOG       39  38  95 NE17      29.73F VSB 1   WCI  30
COLUMBUS       MIX PCPN  35  34  96 N21G31    29.74F FOG     WCI  24
FREMONT        LGT RAIN  37  36  97 N12G17    29.76F WCI  29
TEKAMAH        LGT SNOW  36  34  92 N18       29.79F FOG     WCI  26
WAYNE          CLOUDY    37  33  87 N14       29.83F WCI  28
$$

NEZ050>053-065>068-078-088>093-212000-
SOUTHEAST NEBRASKA

CITY           SKY/WX    TMP DP  RH WIND       PRES   REMARKS
LINCOLN        CLOUDY    40  38  93 N13       29.73F FOG     WCI  32
OMAHA EPPLEY   LGT RAIN  40  39  97 N9        29.76F FOG     WCI  34
BEATRICE       LGT RAIN  42  42 100 NE10      29.70F VSB 1/4
FALLS CITY     CLOUDY    54  49  83 S6        29.69F
NEBRASKA CITY  FOG       42  42 100 NE7       29.71F VSB<1/4
PLATTSMOUTH    FOG       40  40 100 N7        29.72F VSB 1/4
$$

NEZ044-045-051>053-067-212000-
OMAHA AREA

CITY           SKY/WX    TMP DP  RH WIND       PRES   REMARKS
OMAHA EPPLEY   LGT RAIN  40  39  97 N9        29.76F FOG     WCI  34
BLAIR          FOG       39  38  95 NE17      29.73F VSB 1   WCI  30
FREMONT        LGT RAIN  37  36  97 N12G17    29.76F WCI  29
MILLARD        DRIZZLE   42  41  94 NE5       29.74F
OFFUTT AFB     LGT RAIN  41  41  99 N7        29.73S FOG
PLATTSMOUTH    FOG       40  40 100 N7        29.72F VSB 1/4
WAHOO          DRIZZLE   39  37  95 N16       29.73F WCI  30
$$



USA.gov is the U.S. government's official web portal to all federal, state and local government web resources and services.